Regional Weather Roundup
Issued by NWS Sioux Falls, SD

Home | Current Version | Previous Version | Text Only | Print | Product List | Glossary Off
Versions: 1 2 3 4 5 6 7 8 9 10 11 12 13 14 15 16 17 18 19 20 21 22 23 24 25 26 27 28 29 30 31 32 33 34 35 36 37 38 39 40 41 42 43 44 45 46 47 48 49 50

000
ASUS43 KFSD 210810
RWRFSD

WEATHER ROUNDUP FOR SE SOUTH DAKOTA/SW MINNESOTA/NW IOWA
NATIONAL WEATHER SERVICE SIOUX FALLS SD
300 AM CDT FRI JUL 21 2017

NOTE: "FAIR" INDICATES FEW OR NO CLOUDS BELOW 12,000 FEET WITH NO
SIGNIFICANT WEATHER AND OR OBSTRUCTIONS TO VISIBILITY.


SDZ038>040-050-052>070-210900-
SOUTHEAST SOUTH DAKOTA

CITY           SKY/WX    TMP DP  RH WIND       PRES   REMARKS
BROOKINGS      PTCLDY    73  71  93 SE9       29.93F
CHAMBERLAIN    CLOUDY    77  76  95 E8        29.84F
HURON          CLOUDY    73  71  93 E7        29.88F
MADISON        PTSUNNY   70  70 100 NE6       29.93F
MITCHELL       CLOUDY    74  72  93 NE8       29.87F
SIOUX FALLS    PTCLDY    76  74  93 SE9       29.89F
WINNER         PTSUNNY   78  74  87 E9        29.85F
YANKTON        CLOUDY    75  69  81 E9        29.86F
$$

MNZ071-072-080-081-089-090-097-098-210900-
SOUTHWEST MINNESOTA

CITY           SKY/WX    TMP DP  RH WIND       PRES   REMARKS
FAIRMONT       CLOUDY    71  70  96 E6        29.94F
JACKSON        PTCLDY    72  72 100 CALM      29.95F
LUVERNE        PTCLDY    72  70  94 SE3       29.91F
MARSHALL       CLOUDY    71  69  93 SE6       29.93F
MONTEVIDEO     CLOUDY    66  66 100 SE5       29.93F FOG
PIPESTONE      CLOUDY    73  72  94 E6        29.93F
REDWOOD FALLS  CLOUDY    70  68  93 E6        29.93F
TRACY          PTCLDY    72  71  97 S6        29.94F
WINDOM         CLEAR     73  70  88 E5        29.94F
WORTHINGTON    CLOUDY    73  72  96 SE7       29.95F
$$

IAZ001>003-012>014-020>022-031-032-NEZ013-014-SDZ071-210900-
NORTHWEST IOWA

CITY           SKY/WX    TMP DP  RH WIND       PRES   REMARKS
CHEROKEE       PTCLDY    73  68  86 E5        29.92S
DENISON        CLOUDY    73  70  88 E5        29.92F
ESTHERVILLE    CLOUDY    73  72  96 E6        29.94F
ORANGE CITY    CLOUDY    75  72  88 E7        29.91F
SHELDON        CLOUDY    73  70  88 E8        29.90F
SIOUX CITY     CLOUDY    74  70  87 SE8       29.85F
SPENCER        LGT RAIN  75  68  78 SE10      29.94F
STORM LAKE     PTCLDY    70  66  88 SE7       29.93F
$$

ABBREVIATIONS USED IN REMARKS
   TC - TEMPERATURE IN CELSIUS
  WCI - WIND CHILL INDEX
   HX - HEAT INDEX
  VSB - VISIBILITY




USA.gov is the U.S. government's official web portal to all federal, state and local government web resources and services.